ETD69W OMAA-EGLL

Flight info

Callsign ETD69W
Flight time N/A
Altitude 38000
Route DAXIB Q563 UKUVO G462 TUMAK L602 GADSI M860 SEPTU/N0487F400 M860 NINVA UM860 CRM UL746 GOKPA UM10 TIVUG UL852 NEGEM DCT DEGET DCT BEGLA DCT DITIS DCT OKG DCT VELIS DCT SWALM DCT TORNU DCT BREDA DCT ABNED L980 LOGAN
Aircraft B789/H-SDE1E2E3FGHIJ2J3J4J5M1RWXY/LB1D1

Departure

Time 2026-05-04 02:55
Airport Zayed International Airport (OMAA)

Arrival

Time N/A
Airport London Heathrow Airport (EGLL)
Time Latitude Longitude Altitude Speed Heading
2026-05-04 02:13 24.45009 54.64418 100 ft 0 kts 321°
2026-05-04 02:40 24.45008 54.64419 97 ft 2 kts 321°
2026-05-04 02:41 24.44988 54.64437 96 ft 4 kts 321°
2026-05-04 02:41 24.44971 54.64451 97 ft 4 kts 319°
2026-05-04 02:41 24.44953 54.64472 96 ft 4 kts 305°
2026-05-04 02:41 24.44940 54.64498 98 ft 4 kts 289°
2026-05-04 02:42 24.44933 54.64526 95 ft 4 kts 277°
2026-05-04 02:42 24.44930 54.64550 95 ft 3 kts 277°
2026-05-04 02:42 24.44926 54.64579 96 ft 4 kts 281°
2026-05-04 02:42 24.44920 54.64608 97 ft 4 kts 285°
2026-05-04 02:43 24.44913 54.64636 97 ft 4 kts 289°
2026-05-04 02:43 24.44905 54.64659 96 ft 3 kts 290°
2026-05-04 02:43 24.44897 54.64685 97 ft 1 kts 290°
2026-05-04 02:45 24.44897 54.64683 97 ft 1 kts 290°
2026-05-04 02:46 24.44901 54.64673 97 ft 2 kts 290°
2026-05-04 02:46 24.44908 54.64645 98 ft 6 kts 281°
2026-05-04 02:46 24.44894 54.64607 98 ft 4 kts 220°
2026-05-04 02:46 24.44874 54.64606 98 ft 3 kts 176°
2026-05-04 02:47 24.44853 54.64618 99 ft 4 kts 144°
2026-05-04 02:47 24.44832 54.64649 100 ft 7 kts 124°
2026-05-04 02:47 24.44799 54.64702 100 ft 10 kts 124°
2026-05-04 02:47 24.44752 54.64772 99 ft 13 kts 130°
2026-05-04 02:48 24.44689 54.64856 99 ft 16 kts 129°
2026-05-04 02:48 24.44618 54.64958 99 ft 18 kts 127°
2026-05-04 02:48 24.44538 54.65070 99 ft 19 kts 128°
2026-05-04 02:48 24.44461 54.65175 99 ft 14 kts 129°
2026-05-04 02:49 24.44441 54.65267 100 ft 12 kts 66°
2026-05-04 02:49 24.44504 54.65331 100 ft 13 kts 37°
2026-05-04 02:49 24.44580 54.65393 100 ft 14 kts 38°
2026-05-04 02:49 24.44664 54.65465 99 ft 16 kts 38°
2026-05-04 02:50 24.44757 54.65545 100 ft 18 kts 38°
2026-05-04 02:50 24.44855 54.65635 99 ft 18 kts 55°
2026-05-04 02:50 24.44819 54.65739 98 ft 15 kts 129°
2026-05-04 02:50 24.44751 54.65834 98 ft 16 kts 128°
2026-05-04 02:51 24.44681 54.65931 98 ft 17 kts 128°
2026-05-04 02:51 24.44607 54.66035 98 ft 18 kts 128°
2026-05-04 02:51 24.44532 54.66142 98 ft 18 kts 127°
2026-05-04 02:51 24.44455 54.66252 100 ft 18 kts 128°
2026-05-04 02:52 24.44374 54.66364 99 ft 19 kts 128°
2026-05-04 02:52 24.44291 54.66479 99 ft 19 kts 128°
2026-05-04 02:52 24.44208 54.66597 99 ft 20 kts 128°
2026-05-04 02:52 24.44123 54.66717 99 ft 20 kts 127°
2026-05-04 02:53 24.44063 54.66822 98 ft 12 kts 94°
2026-05-04 02:53 24.44110 54.66894 99 ft 13 kts 38°
2026-05-04 02:53 24.44186 54.66959 95 ft 11 kts 38°
2026-05-04 02:53 24.44252 54.66982 92 ft 10 kts 355°
2026-05-04 02:54 24.44296 54.66943 94 ft 8 kts 308°
2026-05-04 02:54 24.44367 54.66845 93 ft 29 kts 308°
2026-05-04 02:54 24.44567 54.66561 94 ft 74 kts 308°
2026-05-04 02:54 24.45021 54.65920 91 ft 137 kts 307°
2026-05-04 02:55 24.46290 54.64034 1071 ft 151 kts 305°
2026-05-04 02:55 24.47133 54.63290 1579 ft 168 kts 345°
2026-05-04 02:55 24.48274 54.63197 2383 ft 166 kts 354°
2026-05-04 02:56 24.49423 54.62943 2999 ft 171 kts 336°
2026-05-04 02:56 24.50581 54.62409 3528 ft 184 kts 333°
2026-05-04 02:56 24.51716 54.61800 4274 ft 189 kts 332°
2026-05-04 02:56 24.52969 54.61224 4822 ft 204 kts 336°
2026-05-04 02:57 24.54334 54.60614 5343 ft 220 kts 333°
2026-05-04 02:57 24.55780 54.59922 5942 ft 237 kts 332°
2026-05-04 02:57 24.57350 54.59147 6575 ft 251 kts 332°
2026-05-04 02:57 24.58942 54.58369 7595 ft 247 kts 332°
2026-05-04 02:58 24.60531 54.57607 8471 ft 252 kts 331°
2026-05-04 02:58 24.62040 54.56662 9317 ft 249 kts 313°
2026-05-04 02:58 24.63222 54.55195 9760 ft 269 kts 305°
2026-05-04 02:58 24.64372 54.53533 10375 ft 279 kts 304°
2026-05-04 02:59 24.65593 54.51751 10617 ft 305 kts 306°
2026-05-04 02:59 24.66926 54.49855 10803 ft 330 kts 307°
2026-05-04 02:59 24.68346 54.47851 11551 ft 333 kts 307°
2026-05-04 02:59 24.69768 54.45825 12266 ft 338 kts 308°
2026-05-04 03:00 24.71214 54.43757 13007 ft 343 kts 308°
2026-05-04 03:00 24.72682 54.41661 13730 ft 348 kts 309°
2026-05-04 03:00 24.74165 54.39545 14421 ft 351 kts 309°